| time (UTC) | temp C | wind direction | speed KPH | gust KPH | rain 1hr cm | rain 24hr cm | rain mn cm | humidity % | barometer mb |
| 20260510220312 | 22 | 50 | 1.6 | 3.2 | 0.00 | 0.00 | 0.00 | 54 | 1010.4 |
| 20260510215120 | 22 | 287 | 3.2 | 4.8 | 0.00 | 0.00 | 0.00 | 53 | 1010.1 |
| 20260510214518 | 22 | 285 | 3.2 | 4.8 | 0.00 | 0.00 | 0.00 | 56 | 1010.1 |
| 20260510213910 | 22 | 26 | 3.2 | 3.2 | 0.00 | 0.00 | 0.00 | 54 | 1010.1 |
| 20260510213350 | 22 | 331 | 1.6 | 1.6 | 0.00 | 0.00 | 0.00 | 54 | 1010.4 |
| 20260510212721 | 22 | 352 | 1.6 | 3.2 | 0.00 | 0.00 | 0.00 | 55 | 1010.1 |
| 20260510212154 | 22 | 21 | 1.6 | 1.6 | 0.00 | 0.00 | 0.00 | 55 | 1009.8 |
| 20260510210926 | 22 | 34 | 0.0 | 0.0 | 0.00 | 0.00 | 0.00 | 58 | 1009.8 |
| 20260510210336 | 21 | 36 | 0.0 | 0.0 | 0.00 | 0.00 | 0.00 | 58 | 1010.1 |
| 20260510205746 | 21 | 14 | 0.0 | 1.6 | 0.00 | 0.00 | 0.00 | 56 | 1009.8 |
| 20260510205138 | 21 | 333 | 1.6 | 1.6 | 0.00 | 0.00 | 0.00 | 58 | 1010.1 |
| 20260510204552 | 21 | 10 | 1.6 | 1.6 | 0.00 | 0.00 | 0.00 | 59 | 1009.8 |
| 20260510203930 | 21 | 68 | 0.0 | 1.6 | 0.00 | 0.00 | 0.00 | 58 | 1009.8 |
| 20260510203333 | 21 | 18 | 0.0 | 1.6 | 0.00 | 0.00 | 0.00 | 57 | 1009.8 |
| 20260510202745 | 21 | 10 | 0.0 | 0.0 | 0.00 | 0.00 | 0.00 | 61 | 1009.8 |
| 20260510202136 | 21 | 322 | 3.2 | 4.8 | 0.00 | 0.00 | 0.00 | 61 | 1010.1 |
| 20260510200912 | 21 | 55 | 4.8 | 6.4 | 0.00 | 0.00 | 0.00 | 61 | 1010.1 |
| 20260510200339 | 21 | 93 | 1.6 | 3.2 | 0.00 | 0.00 | 0.00 | 61 | 1009.8 |
| 20260510195720 | 21 | 302 | 3.2 | 4.8 | 0.00 | 0.00 | 0.00 | 63 | 1009.8 |
| 20260510195153 | 22 | 348 | 3.2 | 3.2 | 0.00 | 0.00 | 0.00 | 58 | 1010.1 |
| 20260510194535 | 21 | 359 | 3.2 | 3.2 | 0.00 | 0.00 | 0.00 | 61 | 1010.4 |
| 20260510193952 | 21 | 338 | 4.8 | 6.4 | 0.00 | 0.00 | 0.00 | 61 | 1010.1 |
| 20260510193321 | 21 | 68 | 3.2 | 6.4 | 0.00 | 0.00 | 0.00 | 61 | 1010.4 |
| 20260510192731 | 21 | 11 | 3.2 | 4.8 | 0.00 | 0.00 | 0.00 | 61 | 1010.4 |
| 20260510192132 | 21 | 48 | 1.6 | 4.8 | 0.00 | 0.00 | 0.00 | 62 | 1010.4 |
| 20260510191534 | 22 | 62 | 3.2 | 4.8 | 0.00 | 0.00 | 0.00 | 60 | 1010.4 |
| 20260510190926 | 22 | 259 | 3.2 | 4.8 | 0.00 | 0.00 | 0.00 | 58 | 1010.4 |
| 20260510190319 | 21 | 37 | 3.2 | 3.2 | 0.00 | 0.00 | 0.00 | 60 | 1010.4 |
| 20260510185121 | 20 | 44 | 1.6 | 1.6 | 0.00 | 0.00 | 0.00 | 63 | 1010.4 |
| 20260510184544 | 20 | 4 | 0.0 | 1.6 | 0.00 | 0.00 | 0.00 | 66 | 1010.1 |
| 20260510183943 | 19 | 13 | 0.0 | 1.6 | 0.00 | 0.00 | 0.00 | 68 | 1010.4 |
| 20260510183349 | 18 | 58 | 1.6 | 1.6 | 0.00 | 0.00 | 0.00 | 68 | 1010.4 |
| 20260510182738 | 18 | 50 | 1.6 | 1.6 | 0.00 | 0.00 | 0.00 | 67 | 1010.4 |
| 20260510182115 | 20 | 50 | 3.2 | 6.4 | 0.00 | 0.00 | 0.00 | 65 | 1010.4 |
| 20260510181544 | 20 | 18 | 1.6 | 3.2 | 0.00 | 0.00 | 0.00 | 69 | 1010.4 |
| 20260510180934 | 20 | 350 | 1.6 | 1.6 | 0.00 | 0.00 | 0.00 | 68 | 1010.4 |
| 20260510180317 | 20 | 351 | 3.2 | 3.2 | 0.00 | 0.00 | 0.00 | 70 | 1010.4 |
| 20260510175741 | 19 | 7 | 0.0 | 0.0 | 0.00 | 0.00 | 0.00 | 73 | 1010.4 |
| 20260510175152 | 18 | 42 | 3.2 | 4.8 | 0.00 | 0.00 | 0.00 | 74 | 1010.4 |
| 20260510173950 | 20 | 11 | 0.0 | 0.0 | 0.00 | 0.00 | 0.00 | 75 | 1010.4 |
| 20260510173326 | 20 | 15 | 1.6 | 1.6 | 0.00 | 0.00 | 0.00 | 75 | 1010.4 |
| 20260510172724 | 20 | 41 | 0.0 | 1.6 | 0.00 | 0.00 | 0.00 | 75 | 1010.1 |
| 20260510172111 | 19 | 357 | 3.2 | 4.8 | 0.00 | 0.00 | 0.00 | 76 | 1010.1 |
| 20260510170336 | 19 | 31 | 0.0 | 0.0 | 0.00 | 0.00 | 0.00 | 77 | 1010.4 |
| 20260510165751 | 19 | 345 | 4.8 | 6.4 | 0.00 | 0.00 | 0.00 | 78 | 1010.4 |
| 20260510164545 | 19 | 25 | 0.0 | 1.6 | 0.00 | 0.00 | 0.00 | 77 | 1010.1 |
| 20260510163944 | 18 | 5 | 3.2 | 3.2 | 0.00 | 0.00 | 0.00 | 77 | 1010.1 |
| 20260510162725 | 18 | 49 | 6.4 | 6.4 | 0.00 | 0.00 | 0.00 | 77 | 1010.1 |
| 20260510161529 | 19 | 46 | 0.0 | 0.0 | 0.00 | 0.00 | 0.00 | 76 | 1010.1 |
| 20260510160950 | 19 | 59 | 0.0 | 0.0 | 0.00 | 0.00 | 0.00 | 77 | 1010.1 |
| 20260510155736 | 18 | 29 | 0.0 | 0.0 | 0.00 | 0.00 | 0.00 | 78 | 1010.1 |
| 20260510155150 | 18 | 340 | 1.6 | 1.6 | 0.00 | 0.00 | 0.00 | 79 | 1010.1 |
| 20260510154523 | 18 | 28 | 0.0 | 0.0 | 0.00 | 0.00 | 0.00 | 79 | 1010.1 |
| 20260510153949 | 18 | 190 | 0.0 | 1.6 | 0.00 | 0.00 | 0.00 | 79 | 1010.1 |
| 20260510153322 | 18 | 259 | 1.6 | 3.2 | 0.00 | 0.00 | 0.00 | 79 | 1009.8 |
| 20260510152734 | 18 | 93 | 1.6 | 1.6 | 0.00 | 0.00 | 0.00 | 79 | 1009.8 |
| 20260510152149 | 17 | 291 | 3.2 | 3.2 | 0.00 | 0.00 | 0.00 | 79 | 1009.8 |
| 20260510151535 | 17 | 310 | 0.0 | 0.0 | 0.00 | 0.00 | 0.00 | 81 | 1009.8 |
| 20260510150914 | 17 | 302 | 1.6 | 3.2 | 0.00 | 0.00 | 0.00 | 81 | 1009.4 |
| 20260510150339 | 17 | 18 | 0.0 | 0.0 | 0.00 | 0.00 | 0.00 | 83 | 1009.4 |
| 20260510145717 | 17 | 323 | 1.6 | 3.2 | 0.00 | 0.00 | 0.00 | 83 | 1009.4 |
| 20260510145138 | 16 | 289 | 1.6 | 3.2 | 0.00 | 0.00 | 0.00 | 83 | 1009.8 |
| 20260510144510 | 16 | 359 | 0.0 | 0.0 | 0.00 | 0.00 | 0.00 | 85 | 1009.8 |
| 20260510143927 | 16 | 358 | 1.6 | 3.2 | 0.00 | 0.00 | 0.00 | 85 | 1009.4 |
| 20260510143335 | 16 | 311 | 1.6 | 1.6 | 0.00 | 0.00 | 0.00 | 86 | 1009.4 |
| 20260510142713 | 16 | 4 | 0.0 | 0.0 | 0.00 | 0.00 | 0.00 | 86 | 1009.4 |
| 20260510142128 | 16 | 4 | 1.6 | 1.6 | 0.00 | 0.00 | 0.00 | 84 | 1009.1 |
| 20260510140929 | 16 | 33 | 1.6 | 1.6 | 0.00 | 0.00 | 0.00 | 84 | 1008.8 |
| 20260510135715 | 16 | 44 | 1.6 | 1.6 | 0.00 | 0.00 | 0.00 | 82 | 1009.1 |
| 20260510135116 | 16 | 352 | 1.6 | 1.6 | 0.00 | 0.00 | 0.00 | 83 | 1009.1 |
| 20260510134511 | 16 | 343 | 1.6 | 1.6 | 0.00 | 0.00 | 0.00 | 83 | 1009.4 |
| 20260510133348 | 16 | 348 | 0.0 | 0.0 | 0.00 | 0.00 | 0.00 | 83 | 1009.1 |
| 20260510132749 | 16 | 306 | 1.6 | 3.2 | 0.00 | 0.00 | 0.00 | 83 | 1009.1 |
| 20260510131517 | 16 | 289 | 0.0 | 1.6 | 0.00 | 0.00 | 0.00 | 83 | 1008.8 |
| 20260510130920 | 16 | 314 | 3.2 | 3.2 | 0.00 | 0.00 | 0.00 | 84 | 1009.1 |
| 20260510130331 | 15 | 139 | 3.2 | 3.2 | 0.00 | 0.00 | 0.00 | 85 | 1009.4 |
| 20260510125751 | 15 | 341 | 0.0 | 0.0 | 0.00 | 0.00 | 0.00 | 86 | 1008.8 |
| 20260510125144 | 15 | 224 | 1.6 | 3.2 | 0.00 | 0.00 | 0.00 | 86 | 1009.1 |
| 20260510123308 | 14 | 326 | 0.0 | 0.0 | 0.00 | 0.00 | 0.00 | 88 | 1008.4 |
| 20260510122730 | 13 | 220 | 0.0 | 0.0 | 0.00 | 0.00 | 0.00 | 88 | 1008.4 |
| 20260510122134 | 13 | 320 | 0.0 | 0.0 | 0.00 | 0.00 | 0.00 | 88 | 1008.4 |
| 20260510121511 | 13 | 335 | 0.0 | 0.0 | 0.00 | 0.00 | 0.00 | 88 | 1008.4 |
| 20260510120949 | 13 | 325 | 0.0 | 0.0 | 0.00 | 0.00 | 0.00 | 88 | 1008.1 |
| 20260510115743 | 13 | 300 | 0.0 | 0.0 | 0.00 | 0.00 | 0.00 | 88 | 1008.1 |
| 20260510114518 | 13 | 241 | 0.0 | 0.0 | 0.00 | 0.00 | 0.00 | 89 | 1007.7 |
| 20260510113914 | 13 | 188 | 0.0 | 0.0 | 0.00 | 0.00 | 0.00 | 90 | 1008.1 |
| 20260510112710 | 12 | 213 | 1.6 | 3.2 | 0.00 | 0.00 | 0.00 | 91 | 1007.7 |
| 20260510112131 | 12 | 237 | 1.6 | 3.2 | 0.00 | 0.00 | 0.00 | 92 | 1007.7 |
| 20260510111532 | 12 | 232 | 0.0 | 1.6 | 0.00 | 0.00 | 0.00 | 94 | 1007.7 |
| 20260510110933 | 11 | 303 | 0.0 | 0.0 | 0.00 | 0.00 | 0.00 | 95 | 1007.4 |
| 20260510110312 | 11 | 222 | 0.0 | 0.0 | 0.00 | 0.00 | 0.00 | 95 | 1007.4 |
| 20260510105747 | 11 | 326 | 0.0 | 0.0 | 0.00 | 0.00 | 0.00 | 95 | 1007.7 |
| 20260510105143 | 11 | 345 | 0.0 | 0.0 | 0.00 | 0.00 | 0.00 | 95 | 1007.4 |
| 20260510103935 | 11 | 340 | 0.0 | 0.0 | 0.00 | 0.00 | 0.00 | 95 | 1007.1 |
| 20260510103324 | 11 | 338 | 0.0 | 0.0 | 0.00 | 0.00 | 0.00 | 95 | 1007.1 |
| 20260510102717 | 11 | 21 | 0.0 | 0.0 | 0.00 | 0.00 | 0.00 | 94 | 1006.7 |
| 20260510102142 | 11 | 359 | 0.0 | 0.0 | 0.00 | 0.00 | 0.00 | 94 | 1006.4 |
| 20260510101511 | 11 | 359 | 0.0 | 0.0 | 0.00 | 0.00 | 0.00 | 94 | 1007.1 |
| 20260510100351 | 11 | 359 | 0.0 | 0.0 | 0.00 | 0.00 | 0.00 | 93 | 1006.4 |
| 20260510095710 | 11 | 352 | 0.0 | 0.0 | 0.00 | 0.00 | 0.00 | 93 | 1006.4 |
| 20260510095139 | 12 | 8 | 0.0 | 0.0 | 0.00 | 0.00 | 0.00 | 92 | 1006.4 |
| 20260510094539 | 11 | 8 | 0.0 | 0.0 | 0.00 | 0.00 | 0.00 | 91 | 1006.4 |
| 20260510093908 | 12 | 8 | 0.0 | 0.0 | 0.00 | 0.00 | 0.00 | 91 | 1006.4 |
| 20260510093327 | 12 | 8 | 0.0 | 0.0 | 0.00 | 0.00 | 0.00 | 90 | 1006.4 |
| 20260510092725 | 12 | 1 | 0.0 | 0.0 | 0.00 | 0.00 | 0.00 | 89 | 1006.4 |
| 20260510092129 | 13 | 355 | 0.0 | 0.0 | 0.00 | 0.00 | 0.00 | 88 | 1006.0 |
| 20260510091537 | 13 | 323 | 0.0 | 0.0 | 0.00 | 0.00 | 0.00 | 88 | 1006.0 |
| 20260510090909 | 13 | 332 | 0.0 | 0.0 | 0.00 | 0.00 | 0.00 | 88 | 1006.0 |
| 20260510090341 | 13 | 226 | 1.6 | 1.6 | 0.00 | 0.00 | 0.00 | 88 | 1006.0 |
| 20260510085716 | 13 | 219 | 1.6 | 3.2 | 0.00 | 0.00 | 0.00 | 88 | 1005.7 |
| 20260510083948 | 13 | 212 | 0.0 | 0.0 | 0.00 | 0.00 | 0.00 | 88 | 1006.0 |
| 20260510083352 | 13 | 294 | 0.0 | 0.0 | 0.00 | 0.00 | 0.00 | 88 | 1006.0 |
| 20260510082744 | 13 | 264 | 3.2 | 3.2 | 0.00 | 0.00 | 0.00 | 89 | 1005.7 |
| 20260510082119 | 13 | 353 | 0.0 | 0.0 | 0.00 | 0.00 | 0.00 | 88 | 1005.7 |
| 20260510081549 | 13 | 319 | 0.0 | 0.0 | 0.00 | 0.00 | 0.00 | 88 | 1005.7 |
| 20260510080918 | 13 | 337 | 0.0 | 0.0 | 0.00 | 0.00 | 0.00 | 88 | 1005.7 |
| 20260510080327 | 13 | 328 | 0.0 | 0.0 | 0.00 | 0.00 | 0.00 | 87 | 1005.7 |
| 20260510075750 | 13 | 324 | 0.0 | 0.0 | 0.00 | 0.00 | 0.00 | 87 | 1005.7 |
| 20260510074542 | 13 | 324 | 0.0 | 0.0 | 0.00 | 0.00 | 0.00 | 87 | 1005.7 |
| 20260510073942 | 13 | 324 | 0.0 | 0.0 | 0.00 | 0.00 | 0.00 | 87 | 1005.7 |
| 20260510073347 | 14 | 341 | 0.0 | 0.0 | 0.00 | 0.00 | 0.00 | 87 | 1005.7 |
| 20260510072734 | 14 | 318 | 0.0 | 0.0 | 0.00 | 0.00 | 0.00 | 87 | 1005.4 |
| 20260510072126 | 14 | 301 | 0.0 | 0.0 | 0.00 | 0.00 | 0.00 | 87 | 1005.7 |
| 20260510071546 | 14 | 302 | 0.0 | 0.0 | 0.00 | 0.00 | 0.00 | 86 | 1005.4 |
| 20260510070925 | 14 | 310 | 0.0 | 0.0 | 0.00 | 0.00 | 0.00 | 86 | 1005.4 |
| 20260510070312 | 14 | 319 | 0.0 | 0.0 | 0.00 | 0.00 | 0.00 | 86 | 1005.4 |
| 20260510065734 | 14 | 324 | 0.0 | 0.0 | 0.00 | 0.00 | 0.00 | 85 | 1005.4 |
| 20260510065141 | 15 | 320 | 0.0 | 0.0 | 0.00 | 0.00 | 0.00 | 85 | 1005.4 |
| 20260510063923 | 15 | 232 | 0.0 | 1.6 | 0.00 | 0.00 | 0.00 | 85 | 1005.7 |
| 20260510063330 | 15 | 268 | 0.0 | 0.0 | 0.00 | 0.00 | 0.00 | 84 | 1005.4 |
| 20260510062709 | 15 | 244 | 0.0 | 0.0 | 0.00 | 0.00 | 0.00 | 84 | 1005.4 |
| 20260510062146 | 15 | 265 | 0.0 | 0.0 | 0.00 | 0.00 | 0.00 | 84 | 1005.4 |
| 20260510061534 | 15 | 218 | 0.0 | 1.6 | 0.00 | 0.00 | 0.00 | 84 | 1005.7 |
| 20260510060949 | 15 | 188 | 0.0 | 1.6 | 0.00 | 0.00 | 0.00 | 83 | 1005.4 |
| 20260510060341 | 15 | 234 | 1.6 | 3.2 | 0.00 | 0.00 | 0.00 | 84 | 1005.4 |
| 20260510055725 | 15 | 325 | 0.0 | 0.0 | 0.00 | 0.00 | 0.00 | 83 | 1005.7 |
| 20260510055118 | 15 | 251 | 0.0 | 0.0 | 0.00 | 0.00 | 0.00 | 83 | 1005.4 |
| 20260510054538 | 15 | 260 | 0.0 | 0.0 | 0.00 | 0.00 | 0.00 | 84 | 1005.7 |
| 20260510053314 | 15 | 308 | 0.0 | 1.6 | 0.00 | 0.00 | 0.00 | 84 | 1005.4 |
| 20260510052149 | 15 | 232 | 0.0 | 0.0 | 0.00 | 0.00 | 0.00 | 83 | 1005.7 |
| 20260510051548 | 15 | 222 | 1.6 | 3.2 | 0.00 | 0.00 | 0.00 | 83 | 1005.7 |
| 20260510050912 | 15 | 227 | 3.2 | 4.8 | 0.00 | 0.00 | 0.00 | 83 | 1005.7 |
| 20260510050332 | 15 | 223 | 3.2 | 3.2 | 0.00 | 0.00 | 0.00 | 83 | 1005.7 |
| 20260510045721 | 15 | 220 | 3.2 | 4.8 | 0.00 | 0.00 | 0.00 | 82 | 1005.7 |
| 20260510045110 | 16 | 258 | 3.2 | 3.2 | 0.00 | 0.00 | 0.00 | 82 | 1005.7 |
| 20260510043931 | 16 | 281 | 3.2 | 3.2 | 0.00 | 0.00 | 0.00 | 82 | 1005.7 |
| 20260510043338 | 16 | 224 | 4.8 | 4.8 | 0.00 | 0.00 | 0.00 | 82 | 1005.7 |
| 20260510042711 | 16 | 3 | 3.2 | 3.2 | 0.00 | 0.00 | 0.00 | 82 | 1005.4 |
| 20260510042145 | 16 | 218 | 4.8 | 6.4 | 0.00 | 0.00 | 0.00 | 81 | 1005.7 |
| 20260510041533 | 16 | 207 | 3.2 | 4.8 | 0.00 | 0.00 | 0.00 | 82 | 1005.7 |
| 20260510040924 | 16 | 212 | 3.2 | 3.2 | 0.00 | 0.00 | 0.00 | 82 | 1005.7 |
| 20260510040343 | 16 | 305 | 3.2 | 3.2 | 0.00 | 0.00 | 0.00 | 81 | 1005.7 |
| 20260510035747 | 16 | 192 | 3.2 | 3.2 | 0.00 | 0.00 | 0.00 | 81 | 1005.7 |
| 20260510035123 | 16 | 319 | 1.6 | 3.2 | 0.00 | 0.00 | 0.00 | 81 | 1006.0 |
| 20260510034541 | 16 | 290 | 1.6 | 1.6 | 0.00 | 0.00 | 0.00 | 80 | 1005.7 |
| 20260510033910 | 16 | 255 | 3.2 | 4.8 | 0.00 | 0.00 | 0.00 | 80 | 1005.7 |
| 20260510033316 | 16 | 229 | 3.2 | 4.8 | 0.00 | 0.00 | 0.00 | 79 | 1005.7 |
| 20260510032752 | 16 | 272 | 6.4 | 6.4 | 0.00 | 0.00 | 0.00 | 80 | 1005.7 |
| 20260510032147 | 16 | 221 | 3.2 | 4.8 | 0.00 | 0.00 | 0.00 | 80 | 1005.7 |
| 20260510031524 | 16 | 206 | 4.8 | 4.8 | 0.00 | 0.00 | 0.00 | 80 | 1005.7 |
| 20260510030919 | 16 | 267 | 3.2 | 4.8 | 0.00 | 0.00 | 0.00 | 80 | 1005.7 |
| 20260510030328 | 16 | 215 | 3.2 | 4.8 | 0.00 | 0.00 | 0.00 | 80 | 1005.7 |
| 20260510025732 | 16 | 215 | 1.6 | 3.2 | 0.00 | 0.00 | 0.00 | 80 | 1005.7 |
| 20260510025123 | 16 | 333 | 1.6 | 3.2 | 0.00 | 0.00 | 0.00 | 79 | 1005.7 |
| 20260510023940 | 16 | 337 | 1.6 | 1.6 | 0.00 | 0.00 | 0.00 | 78 | 1005.4 |
| 20260510022739 | 17 | 214 | 3.2 | 3.2 | 0.00 | 0.00 | 0.00 | 78 | 1005.0 |
| 20260510021510 | 17 | 224 | 3.2 | 3.2 | 0.00 | 0.00 | 0.00 | 76 | 1005.0 |
| 20260510020952 | 17 | 223 | 3.2 | 4.8 | 0.00 | 0.00 | 0.00 | 76 | 1005.0 |
| 20260510015740 | 17 | 198 | 4.8 | 4.8 | 0.00 | 0.00 | 0.00 | 76 | 1005.0 |
| 20260510015143 | 17 | 227 | 3.2 | 3.2 | 0.00 | 0.00 | 0.00 | 76 | 1004.7 |
| 20260510014511 | 17 | 213 | 4.8 | 4.8 | 0.00 | 0.00 | 0.00 | 75 | 1004.7 |
| 20260510013946 | 17 | 308 | 1.6 | 3.2 | 0.00 | 0.00 | 0.00 | 75 | 1004.4 |
| 20260510012725 | 17 | 216 | 3.2 | 3.2 | 0.00 | 0.00 | 0.00 | 74 | 1004.4 |
| 20260510012131 | 17 | 218 | 3.2 | 4.8 | 0.00 | 0.00 | 0.00 | 73 | 1004.4 |
| 20260510011556 | 18 | 254 | 3.2 | 3.2 | 0.00 | 0.00 | 0.00 | 73 | 1004.4 |
| 20260510010951 | 18 | 232 | 4.8 | 4.8 | 0.00 | 0.00 | 0.00 | 71 | 1004.0 |
| 20260510010348 | 18 | 230 | 3.2 | 3.2 | 0.00 | 0.00 | 0.00 | 70 | 1003.7 |
| 20260510005143 | 18 | 206 | 4.8 | 4.8 | 0.00 | 0.00 | 0.00 | 67 | 1004.0 |
| 20260510004550 | 18 | 245 | 3.2 | 4.8 | 0.00 | 0.00 | 0.00 | 65 | 1003.7 |
| 20260510003308 | 19 | 189 | 3.2 | 4.8 | 0.00 | 0.00 | 0.00 | 63 | 1003.3 |
| 20260510002716 | 19 | 216 | 3.2 | 4.8 | 0.00 | 0.00 | 0.00 | 63 | 1003.3 |
| 20260510001511 | 20 | 304 | 1.6 | 3.2 | 0.00 | 0.00 | 0.00 | 62 | 1003.3 |
| 20260510000943 | 20 | 217 | 3.2 | 3.2 | 0.00 | 0.00 | 0.00 | 62 | 1003.3 |
| 20260510000349 | 20 | 199 | 3.2 | 3.2 | 0.00 | 0.00 | 0.00 | 60 | 1003.3 |
| 20260509235710 | 20 | 239 | 1.6 | 3.2 | 0.00 | 0.00 | 0.00 | 60 | 1003.3 |
| 20260509235126 | 20 | 204 | 3.2 | 4.8 | 0.00 | 0.00 | 0.00 | 59 | 1003.3 |
| 20260509234543 | 20 | 340 | 0.0 | 1.6 | 0.00 | 0.00 | 0.00 | 58 | 1003.0 |
| 20260509233949 | 21 | 219 | 3.2 | 4.8 | 0.00 | 0.00 | 0.00 | 57 | 1003.0 |
| 20260509233339 | 21 | 247 | 3.2 | 3.2 | 0.00 | 0.00 | 0.00 | 58 | 1003.0 |
| 20260509232130 | 21 | 192 | 3.2 | 4.8 | 0.00 | 0.00 | 0.00 | 55 | 1003.0 |
| 20260509231509 | 21 | 217 | 4.8 | 4.8 | 0.00 | 0.00 | 0.00 | 56 | 1002.7 |
| 20260509230951 | 22 | 208 | 8.0 | 11.3 | 0.00 | 0.00 | 0.00 | 55 | 1003.0 |
| 20260509230332 | 21 | 5 | 3.2 | 3.2 | 0.00 | 0.00 | 0.00 | 56 | 1003.0 |
| 20260509225146 | 22 | 181 | 3.2 | 4.8 | 0.00 | 0.00 | 0.00 | 54 | 1003.0 |
| 20260509224535 | 22 | 204 | 4.8 | 4.8 | 0.00 | 0.00 | 0.00 | 54 | 1003.0 |
| 20260509223928 | 22 | 218 | 6.4 | 11.3 | 0.00 | 0.00 | 0.00 | 53 | 1002.7 |
| 20260509223343 | 22 | 303 | 4.8 | 6.4 | 0.00 | 0.00 | 0.00 | 54 | 1003.0 |
| 20260509222130 | 22 | 214 | 3.2 | 6.4 | 0.00 | 0.00 | 0.00 | 57 | 1003.0 |
| 20260509220917 | 22 | 213 | 3.2 | 4.8 | 0.00 | 0.00 | 0.00 | 54 | 1003.0 |